Wetbulb
59.38 59.36 59.38 59.16 59.00 59.00 59.17 59.15 59.24 59.45 59.40 59.81 59.87 59.97 59.93 60.10 59.20 58.25 55.68 60.24 59.75 67.13 65.56 55.71 55.66 55.18 55.45 52.48 53.08 51.64 45.01 44.33 43.73 46.57 46.30 55.42 56.54 60.63 62.79 60.42 61.22 64.37 65.64 65.13 67.37
59.13 59.18 59.09 59.03 59.03 58.78 58.69 58.84 58.89 59.08 59.37 59.54 59.50 59.53 59.64 59.66 57.13 56.75 65.18 68.17 68.38 68.82 54.31 53.28 51.86 53.23 48.60 50.20 51.03 49.03 44.99 45.54 49.28 50.20 49.65 58.87 58.90 59.67 60.17 59.41 58.21 62.64 65.76 66.95 66.04
58.96 59.03 58.95 59.01 59.01 58.43 58.40 58.47 58.72 59.00 59.31 59.37 59.14 59.11 59.42 58.59 56.85 57.56 69.41 68.95 68.89 67.75 54.74 53.30 53.58 51.37 48.44 50.46 51.86 51.10 47.18 48.84 53.01 53.97 54.49 61.28 61.66 64.55 62.17 59.89 60.58 61.42 62.06 64.95 64.53
58.60 58.78 58.78 58.58 58.56 58.32 58.10 58.10 58.50 58.95 59.08 58.58 58.57 58.95 59.33 57.64 49.11 56.78 69.81 69.52 68.11 59.76 53.03 52.82 52.05 47.56 48.39 48.39 52.18 47.55 50.85 50.13 52.89 56.73 61.80 61.23 64.34 62.66 63.42 63.17 63.95 63.70 63.39 62.64 61.49
58.19 58.50 58.41 58.22 57.97 57.78 57.66 57.75 58.00 58.20 58.26 58.24 58.65 59.28 57.24 56.70 54.64 65.54 69.53 68.38 59.40 55.43 53.16 52.08 50.57 49.36 48.13 49.79 50.53 47.59 50.48 50.55 54.30 59.44 60.93 62.95 59.67 62.45 62.11 64.30 64.80 63.78 63.40 62.52 61.84
57.86 57.96 57.96 57.91 57.62 57.61 57.35 57.25 57.12 57.25 57.60 58.59 60.05 59.85 56.60 50.75 57.71 64.20 61.86 59.70 57.72 54.05 52.89 51.62 51.46 52.56 49.68 49.30 48.11 50.75 50.43 50.65 53.74 59.10 60.32 58.83 57.39 61.68 62.41 61.24 61.77 61.25 60.76 61.54 61.55
57.59 57.49 57.47 57.56 57.45 57.32 57.27 56.82 56.33 57.05 57.90 59.68 61.30 59.44 57.94 55.96 58.68 60.86 59.00 56.33 56.97 56.09 53.73 54.61 54.57 51.96 51.36 49.23 51.63 50.70 45.60 49.14 50.44 59.18 54.81 56.22 53.13 54.74 58.48 62.20 58.77 60.33 60.81 60.90 61.52
57.40 56.96 57.08 57.34 57.17 57.12 57.24 56.67 56.49 57.53 58.87 61.49 61.15 58.29 54.69 61.43 58.15 56.28 56.33 56.79 57.22 56.25 55.76 56.39 55.55 52.09 48.89 51.45 51.07 47.50 44.88 41.95 48.94 57.23 58.71 57.18 50.36 55.30 61.95 60.09 58.65 60.40 60.30 60.55 60.70
57.40 56.80 56.80 56.93 57.02 56.86 56.36 55.80 57.07 58.85 60.45 60.19 57.99 57.17 55.20 62.97 56.49 55.74 55.95 54.56 55.26 56.15 56.10 58.76 52.46 50.02 50.61 46.11 44.09 45.28 41.10 43.56 52.70 58.00 56.81 55.87 52.19 54.87 58.08 58.58 57.42 59.05 58.66 59.95 60.39
57.28 56.47 56.35 56.54 56.62 56.25 55.40 55.88 59.59 59.44 60.03 60.72 61.01 54.12 57.36 57.69 56.08 57.70 55.94 56.14 55.01 54.67 53.30 51.92 48.74 45.88 45.17 42.89 40.21 43.26 43.83 45.71 51.13 54.14 55.47 53.95 53.81 54.61 57.42 57.01 56.78 58.00 58.50 59.44 59.91
57.30 56.61 56.31 56.15 56.10 55.41 53.87 55.48 51.70 53.39 54.69 53.76 53.46 54.88 56.25 58.84 58.49 56.39 57.23 55.68 55.80 53.42 47.68 50.05 45.05 42.80 46.09 48.20 49.67 48.89 47.08 49.93 53.32 57.55 54.31 52.52 52.06 56.13 58.20 59.26 58.28 57.11 57.59 58.83 58.99
57.11 56.67 56.49 55.95 55.67 55.05 53.65 51.11 51.37 52.19 48.10 54.65 54.44 54.80 57.03 57.98 54.59 55.90 57.70 52.71 51.60 48.03 49.63 47.33 44.85 49.34 51.99 52.47 49.88 49.04 47.51 52.31 53.34 56.58 54.26 50.44 52.40 54.03 57.08 57.53 57.71 57.44 57.65 58.41 59.64
56.36 56.22 56.14 55.67 54.96 54.92 53.75 52.51 54.81 54.57 47.71 52.91 54.11 53.55 54.13 54.93 54.49 54.00 54.89 52.86 50.50 48.04 48.48 46.61 50.08 53.25 52.55 49.96 50.19 48.37 48.50 50.84 50.73 54.49 54.28 52.70 49.29 52.12 54.08 56.62 58.84 60.56 60.15 60.16 60.47
56.03 55.89 55.79 54.98 53.67 54.96 53.76 56.31 55.40 54.08 43.66 50.14 51.78 51.90 53.09 54.05 53.39 57.92 57.66 53.52 50.67 48.47 50.31 49.73 53.06 52.89 51.00 50.35 50.75 45.10 52.41 51.81 49.39 46.15 41.70 51.91 40.49 46.37 51.20 52.31 56.35 59.52 59.69 60.49 60.38
56.01 55.97 55.67 54.96 52.57 52.12 55.19 56.84 55.46 52.95 40.89 51.11 50.95 54.75 54.11 52.25 54.03 54.38 58.28 54.19 49.74 50.83 49.83 48.89 49.73 50.63 49.73 51.80 51.28 49.41 53.36 50.98 50.88 46.08 44.51 49.52 47.99 46.95 53.00 50.54 51.92 57.00 58.94 59.82 61.90
55.85 55.87 54.76 54.82 53.83 56.04 58.07 56.96 54.77 45.25 39.64 50.06 50.32 50.84 50.35 52.82 53.30 54.15 53.95 54.89 54.65 50.88 51.49 50.90 53.23 51.66 51.97 53.32 51.99 52.32 50.09 49.35 48.43 45.33 42.25 49.20 47.52 47.23 48.69 51.47 53.38 55.75 60.12 59.84 58.11
55.77 55.57 53.86 55.20 51.44 56.85 57.50 54.71 44.67 40.74 53.20 47.48 48.45 50.58 49.36 49.71 50.88 52.01 51.09 49.51 46.87 44.26 45.93 50.05 49.87 51.65 53.96 49.47 51.28 49.49 45.49 38.98 38.81 41.53 39.97 50.47 46.80 46.73 54.34 56.18 57.70 56.14 56.75 56.33 55.20
54.29 53.51 53.90 56.89 58.36 57.86 55.56 49.21 40.11 49.34 50.58 52.67 51.32 50.19 48.10 49.79 50.42 50.93 49.47 47.29 50.67 48.56 45.58 45.95 44.03 49.57 52.36 48.93 47.09 48.69 45.51 40.81 35.17 35.43 42.56 50.82 45.23 50.10 57.47 58.47 58.31 57.78 56.81 55.86 54.93
52.35 54.92 55.72 57.96 58.81 57.84 50.82 43.17 44.28 49.85 53.25 52.30 49.81 46.96 46.44 49.40 49.72 49.67 48.56 47.89 49.80 49.79 46.05 48.34 48.52 52.49 52.99 52.88 50.30 48.03 45.56 48.95 44.73 44.48 42.37 45.32 48.95 53.33 57.10 56.99 56.62 55.22 55.27 54.28 51.67
52.23 51.99 53.58 57.80 60.35 55.42 47.89 43.66 49.26 53.83 53.52 53.03 47.27 47.82 45.19 47.34 47.62 47.47 47.99 51.19 51.65 54.53 53.92 52.11 47.78 52.29 52.94 52.16 51.29 47.87 51.77 43.60 43.72 37.12 37.60 45.27 45.74 46.72 50.33 52.16 52.52 52.30 50.65 50.38 51.75
51.51 50.09 57.21 60.92 59.46 51.25 43.63 45.89 49.92 53.84 53.32 51.29 50.48 49.84 47.72 48.07 48.57 47.79 49.27 54.64 55.72 53.88 52.41 49.57 49.72 49.78 51.18 49.19 47.55 47.70 46.33 47.69 45.64 44.51 38.76 39.35 43.69 52.15 49.93 50.63 49.50 49.20 49.58 51.05 51.20
51.50 46.85 58.74 59.97 47.95 47.96 45.11 50.54 51.10 52.42 54.12 52.73 54.25 52.34 51.03 49.97 49.35 50.93 52.31 54.04 55.50 56.19 52.27 51.71 50.02 45.50 47.77 51.86 53.42 50.36 48.40 46.96 40.76 39.72 42.42 42.73 42.39 53.04 51.25 50.66 49.74 48.65 49.79 50.93 51.28
50.32 51.16 58.06 58.09 44.31 44.46 48.82 51.53 53.02 51.78 51.54 52.73 53.50 53.67 54.20 50.70 49.01 52.76 53.40 56.17 55.55 55.34 51.43 52.85 48.82 41.49 44.79 49.53 52.60 48.49 48.90 48.95 46.92 44.87 43.90 41.69 42.51 53.45 52.00 50.01 49.60 48.37 48.98 49.64 50.49
49.38 46.29 50.85 54.42 52.82 48.49 47.16 49.49 51.56 53.28 51.54 52.03 54.54 55.06 52.51 51.08 53.32 50.98 51.77 55.14 54.27 53.62 58.49 56.54 48.57 46.41 42.09 47.53 49.85 47.57 49.06 50.12 46.44 41.00 44.94 45.15 44.33 47.98 49.02 47.81 48.60 48.79 49.38 49.51 49.41
49.93 48.21 52.23 46.59 49.31 49.38 48.71 50.13 50.37 50.45 53.19 55.65 53.40 54.25 52.12 49.99 51.27 50.60 52.45 52.35 53.36 56.24 55.63 53.45 45.55 46.57 48.52 51.16 50.18 48.81 48.94 49.00 46.41 45.96 44.74 45.17 44.80 46.23 46.93 47.25 48.62 49.86 50.13 49.22 48.75
47.69 48.18 51.49 49.85 53.05 51.54 47.60 48.76 50.57 51.48 52.90 51.95 51.80 54.14 54.48 51.61 52.86 50.07 51.95 50.95 50.35 54.23 51.44 52.67 46.38 46.38 45.75 49.64 49.22 47.68 49.77 49.57 48.56 49.31 48.10 47.28 44.84 48.30 49.07 50.48 48.87 48.62 48.45 47.51 48.50
52.98 54.38 52.15 48.83 49.70 48.98 48.51 51.26 51.75 52.72 54.75 55.66 55.56 54.81 54.18 56.12 57.10 56.79 56.20 55.27 54.39 52.50 51.23 50.06 47.53 45.20 42.01 48.38 47.93 44.36 47.70 48.77 48.21 48.11 47.30 41.93 43.71 47.66 47.66 47.67 46.52 46.52 47.54 48.00 48.56
MSLP
1019.25 1018.87 1018.45 1018.01 1017.17 1016.50 1016.02 1015.33 1014.78 1014.35 1013.77 1013.39 1012.96 1012.47 1012.10 1011.65 1010.93 1010.62 1009.22 1006.64 1006.59 1006.60 1007.06 1006.71 1006.76 1006.40 1006.20 1006.13 1005.53 1005.28 1006.17 1005.52 1004.27 1003.67 1003.67 1003.01 1004.33 1006.49 1008.38 1009.40 1010.49 1011.08 1011.20 1014.17 1013.33
1019.23 1018.75 1018.09 1017.63 1017.17 1016.60 1015.80 1014.94 1014.48 1014.01 1013.43 1013.03 1012.62 1012.31 1011.94 1011.66 1010.94 1009.01 1006.45 1005.97 1005.95 1006.51 1007.02 1006.67 1006.35 1006.20 1006.26 1005.28 1005.08 1004.90 1004.91 1004.30 1003.40 1003.42 1003.88 1004.02 1004.49 1006.04 1008.26 1009.86 1011.14 1011.32 1013.89 1013.14 1012.74
1019.39 1019.07 1018.55 1017.73 1017.03 1016.21 1015.38 1014.82 1014.33 1013.60 1013.09 1012.75 1012.45 1012.08 1011.80 1011.78 1010.64 1006.93 1005.53 1005.99 1006.12 1006.69 1006.86 1006.60 1006.32 1006.25 1005.61 1004.82 1004.27 1003.60 1003.97 1003.46 1003.48 1003.51 1004.03 1005.10 1005.66 1006.31 1007.99 1009.79 1011.65 1013.26 1012.65 1012.94 1012.88
1019.41 1018.83 1018.25 1017.59 1016.67 1016.10 1015.38 1014.60 1013.93 1013.26 1012.87 1012.39 1012.06 1011.84 1011.75 1011.54 1009.29 1006.10 1005.93 1006.10 1006.24 1006.52 1006.75 1006.45 1006.06 1006.01 1005.52 1004.89 1003.52 1003.31 1003.01 1002.89 1003.24 1003.88 1005.29 1007.07 1007.17 1007.84 1008.88 1010.08 1010.89 1011.01 1011.76 1012.11 1012.13
1019.17 1018.54 1017.80 1017.10 1016.45 1015.40 1014.79 1014.12 1013.57 1013.06 1012.44 1011.91 1011.69 1011.76 1011.83 1010.52 1007.49 1005.87 1006.04 1006.10 1006.08 1006.33 1006.38 1006.41 1006.19 1005.32 1005.00 1004.40 1003.48 1003.16 1002.80 1002.98 1003.11 1005.06 1006.60 1006.81 1009.95 1010.49 1010.86 1011.05 1010.92 1011.14 1011.69 1012.59 1012.84
1018.80 1018.17 1017.53 1016.63 1016.01 1015.25 1014.65 1013.91 1013.28 1012.44 1011.93 1011.61 1011.52 1011.70 1011.22 1008.80 1005.37 1005.63 1006.10 1006.11 1005.74 1006.00 1005.78 1005.88 1005.52 1004.69 1004.31 1003.84 1003.47 1002.56 1002.73 1003.02 1003.67 1005.59 1007.30 1008.21 1010.80 1011.01 1012.15 1013.16 1012.31 1012.07 1012.35 1013.40 1013.47
1018.67 1018.16 1017.60 1016.88 1015.91 1014.95 1014.27 1013.49 1012.58 1012.00 1011.62 1011.32 1011.28 1011.46 1009.83 1006.80 1005.04 1005.53 1005.87 1005.57 1005.34 1005.36 1005.47 1005.09 1004.50 1004.26 1004.18 1003.84 1002.75 1002.41 1003.00 1003.28 1004.29 1006.66 1008.88 1009.43 1012.82 1013.06 1012.80 1013.41 1014.03 1013.83 1013.51 1013.95 1014.21
1018.38 1017.74 1017.09 1016.45 1015.46 1014.39 1013.57 1012.65 1011.96 1011.44 1011.19 1010.95 1011.22 1010.89 1008.41 1004.80 1004.77 1005.22 1005.38 1005.30 1004.93 1004.89 1004.98 1004.26 1003.90 1004.09 1004.25 1003.86 1003.31 1003.19 1003.14 1003.94 1004.72 1006.45 1009.29 1009.84 1014.18 1013.98 1013.30 1014.13 1014.79 1014.64 1014.33 1014.71 1015.03
1018.12 1017.49 1016.90 1016.16 1015.17 1013.79 1012.76 1011.64 1010.94 1010.55 1010.77 1010.86 1011.14 1010.17 1007.00 1004.60 1004.64 1004.57 1004.70 1004.77 1004.50 1004.42 1004.28 1004.05 1004.14 1004.52 1004.49 1004.64 1004.41 1003.65 1003.68 1004.19 1006.00 1006.78 1008.62 1010.64 1014.69 1015.13 1014.33 1014.62 1015.99 1015.54 1014.61 1014.88 1015.68
1018.21 1017.53 1016.81 1015.94 1015.13 1013.96 1012.62 1010.78 1010.12 1010.30 1010.74 1010.46 1009.78 1009.00 1006.29 1004.73 1004.23 1004.11 1004.05 1004.09 1004.31 1004.16 1004.39 1004.37 1004.67 1004.87 1004.73 1005.00 1004.65 1003.87 1003.69 1003.73 1005.98 1009.26 1009.40 1011.93 1015.26 1016.95 1017.51 1018.23 1018.10 1015.70 1015.09 1015.10 1015.67
1018.32 1017.71 1016.95 1015.98 1014.99 1013.70 1013.09 1010.69 1010.76 1010.39 1009.88 1008.97 1007.90 1006.55 1004.98 1004.14 1003.82 1004.10 1003.88 1004.13 1004.11 1004.06 1004.49 1004.42 1005.07 1004.58 1004.13 1003.98 1003.49 1003.12 1002.66 1003.47 1005.71 1008.23 1009.96 1013.32 1014.71 1015.29 1015.26 1016.17 1016.76 1015.73 1015.07 1015.38 1014.58
1018.35 1017.72 1016.95 1015.91 1014.78 1013.73 1013.06 1012.24 1011.66 1011.48 1009.29 1007.57 1006.41 1005.64 1004.78 1004.34 1004.28 1003.79 1003.68 1004.18 1004.26 1004.34 1004.33 1004.63 1004.22 1003.01 1002.87 1002.77 1002.21 1002.04 1002.38 1003.48 1005.80 1007.13 1008.95 1013.11 1015.25 1016.05 1015.82 1015.09 1014.20 1014.90 1014.79 1014.94 1014.59
1018.36 1017.81 1017.08 1015.79 1014.30 1013.14 1013.00 1012.01 1011.25 1010.94 1009.76 1006.26 1004.91 1004.56 1004.13 1004.16 1003.85 1003.48 1003.43 1003.76 1004.08 1004.40 1004.15 1004.13 1002.72 1002.17 1001.81 1001.40 1001.48 1001.65 1002.16 1002.65 1004.16 1006.06 1008.64 1010.83 1014.29 1015.77 1016.29 1015.58 1015.61 1015.53 1014.98 1015.37 1015.29
1018.30 1017.81 1017.28 1016.11 1014.01 1013.52 1012.50 1011.58 1011.10 1011.09 1009.87 1005.34 1003.82 1003.24 1003.35 1003.75 1003.50 1002.87 1002.80 1003.49 1003.57 1003.57 1003.37 1003.05 1001.64 1001.24 1000.85 1000.87 1000.97 1001.40 1001.63 1002.23 1003.37 1005.05 1007.56 1008.74 1014.03 1015.43 1016.35 1016.50 1015.92 1016.00 1016.32 1015.81 1015.85
1018.16 1017.70 1017.23 1017.03 1015.93 1014.08 1012.26 1011.55 1011.04 1011.07 1008.31 1003.52 1002.71 1002.18 1002.79 1003.40 1002.39 1002.16 1002.06 1002.86 1002.97 1002.87 1003.19 1002.01 1000.79 1000.57 1000.45 1000.51 1000.62 1001.33 1001.70 1002.48 1003.51 1005.05 1006.52 1009.05 1012.13 1015.22 1016.10 1016.56 1016.04 1016.14 1016.14 1016.56 1016.11
1017.87 1017.53 1017.27 1015.82 1015.51 1013.15 1012.08 1011.30 1011.02 1010.59 1006.37 1003.26 1002.48 1002.35 1002.87 1002.98 1002.54 1002.02 1002.18 1002.39 1002.47 1002.67 1002.28 1001.43 1000.24 1000.20 1000.21 1000.27 1000.55 1001.06 1002.00 1002.73 1003.62 1005.09 1007.16 1008.90 1011.11 1014.59 1015.27 1014.84 1015.07 1016.19 1016.48 1016.75 1016.17
1017.50 1016.92 1017.43 1016.27 1014.22 1011.87 1011.88 1011.53 1011.32 1008.60 1004.00 1003.39 1002.78 1002.66 1002.83 1002.94 1002.54 1002.24 1002.36 1002.54 1002.82 1002.73 1002.27 1000.97 1000.39 1000.04 1000.03 1000.43 1000.69 1001.30 1002.63 1004.06 1005.42 1006.23 1008.79 1009.85 1011.63 1014.00 1013.97 1014.47 1015.23 1016.30 1016.33 1015.84 1015.56
1017.12 1016.24 1015.00 1013.98 1012.66 1012.62 1012.69 1012.11 1010.42 1006.95 1004.89 1002.61 1002.40 1002.60 1002.86 1002.60 1002.28 1002.23 1002.53 1002.72 1002.35 1002.68 1002.77 1001.76 1000.68 1000.07 1000.17 1000.65 1001.23 1001.73 1002.63 1004.58 1006.26 1007.69 1009.66 1010.24 1013.49 1015.42 1014.60 1014.77 1015.37 1015.36 1015.25 1015.37 1015.71
1016.87 1014.95 1013.51 1011.82 1011.96 1012.29 1012.58 1011.52 1008.58 1005.88 1004.22 1003.02 1002.23 1002.65 1002.65 1002.41 1002.16 1002.11 1002.38 1002.38 1002.05 1001.75 1002.24 1001.67 1000.25 1000.07 1000.32 1000.71 1001.31 1002.16 1003.17 1003.95 1005.82 1007.16 1009.72 1012.67 1014.47 1015.32 1014.97 1014.69 1014.80 1015.07 1015.41 1015.88 1017.08
1017.46 1015.28 1012.27 1010.42 1010.73 1011.96 1012.18 1010.73 1007.75 1005.52 1004.24 1003.33 1002.76 1002.26 1002.37 1002.29 1002.12 1001.99 1002.06 1001.57 1001.51 1001.53 1001.37 1001.77 1001.54 1000.80 1000.86 1001.13 1001.51 1002.15 1003.31 1004.87 1006.71 1008.54 1010.92 1013.43 1014.02 1014.85 1015.36 1015.32 1015.29 1015.61 1016.08 1016.65 1017.77
1017.51 1014.75 1010.28 1009.91 1010.89 1011.79 1011.47 1009.38 1007.43 1005.56 1004.48 1004.10 1003.37 1002.98 1002.25 1002.13 1001.94 1001.93 1001.62 1001.55 1001.28 1001.52 1001.48 1002.13 1002.60 1002.06 1001.66 1002.14 1002.53 1003.23 1004.45 1005.89 1007.34 1009.06 1010.53 1012.76 1014.40 1014.16 1014.83 1015.07 1015.74 1016.24 1017.01 1017.92 1018.63
1016.78 1013.83 1009.98 1010.09 1011.25 1010.82 1010.19 1008.91 1006.96 1005.65 1004.61 1004.03 1003.27 1003.04 1002.28 1002.00 1002.03 1002.15 1001.99 1001.68 1001.67 1002.23 1002.96 1003.16 1003.50 1003.56 1003.09 1002.93 1003.08 1003.96 1005.30 1006.63 1008.83 1010.15 1010.77 1012.03 1014.70 1014.31 1015.00 1015.58 1016.11 1017.13 1017.91 1018.68 1019.24
1016.32 1013.27 1010.28 1010.10 1010.79 1010.49 1009.42 1008.36 1006.85 1005.77 1005.00 1004.10 1003.55 1002.99 1002.37 1002.31 1002.30 1001.92 1002.33 1002.32 1002.22 1003.10 1004.14 1004.24 1004.55 1004.65 1004.25 1004.44 1004.21 1005.16 1005.94 1006.92 1008.32 1009.64 1011.22 1012.55 1014.89 1014.93 1015.38 1016.12 1016.88 1017.64 1018.42 1019.47 1019.87
1016.55 1013.28 1011.12 1010.66 1010.45 1010.33 1009.73 1008.01 1006.43 1005.56 1004.98 1004.49 1004.00 1003.28 1002.64 1002.36 1002.05 1002.92 1002.78 1003.00 1003.20 1003.70 1004.28 1004.55 1005.41 1005.80 1005.59 1005.20 1005.16 1005.94 1006.71 1007.78 1009.05 1010.51 1011.70 1013.29 1014.79 1015.41 1016.08 1016.86 1017.54 1018.17 1018.86 1019.66 1020.21
1016.27 1013.33 1011.23 1010.69 1010.39 1010.04 1009.74 1008.45 1007.08 1005.89 1004.65 1004.37 1003.99 1003.49 1003.03 1002.83 1002.44 1003.00 1003.11 1003.71 1004.00 1004.35 1004.74 1005.28 1006.23 1006.04 1005.66 1005.30 1005.75 1006.53 1007.40 1008.56 1009.80 1010.66 1012.37 1014.27 1015.10 1016.10 1016.67 1017.44 1018.29 1018.87 1019.45 1020.03 1020.79
1016.19 1013.59 1012.31 1011.27 1009.82 1009.17 1008.96 1008.36 1007.47 1006.25 1005.52 1004.69 1004.37 1003.65 1003.21 1003.01 1002.52 1003.04 1003.09 1003.74 1004.49 1004.99 1005.47 1006.21 1006.70 1006.58 1006.31 1006.05 1006.54 1007.39 1008.20 1009.14 1010.40 1011.65 1013.09 1014.40 1015.75 1016.34 1017.16 1017.98 1018.98 1019.70 1020.22 1020.89 1021.54
1015.40 1014.18 1013.58 1011.54 1010.26 1009.35 1008.48 1007.94 1007.24 1006.52 1005.27 1004.60 1004.51 1004.21 1003.53 1002.64 1002.19 1002.39 1002.93 1003.70 1004.63 1005.41 1006.10 1006.59 1007.07 1007.49 1007.38 1007.14 1007.57 1008.59 1008.91 1009.75 1011.19 1012.22 1013.47 1014.95 1016.06 1016.70 1018.17 1019.09 1019.94 1020.49 1020.93 1021.58 1022.01
Wind_Speed
15 16 16 16 19 19 19 19 19 19 18 19 17 16 15 16 19 4 5 9 7 12 3 5 5 9 10 9 9 6 3 7 6 9 5 10 10 6 13 9 5 7 21 16 20
15 17 19 20 20 20 20 20 20 20 19 18 16 14 14 12 5 8 8 8 9 13 3 7 8 9 5 7 6 7 1 7 5 7 7 12 15 11 9 15 13 6 17 19 17
15 15 18 20 20 21 21 20 21 20 19 18 15 13 12 7 5 7 12 8 7 7 4 6 10 6 7 7 10 8 7 2 6 8 10 16 18 18 12 10 13 11 17 19 17
15 17 17 19 21 21 21 21 21 21 19 17 14 10 8 4 3 3 7 6 8 7 6 6 8 5 6 7 10 4 5 4 5 9 16 23 16 19 20 19 21 20 18 16 16
15 17 19 20 21 23 22 23 22 21 18 15 11 8 4 2 9 7 8 7 5 3 7 7 11 6 8 7 10 4 5 2 5 22 16 32 23 16 22 17 16 17 19 16 15
15 17 19 23 24 25 23 23 22 20 17 13 8 3 3 4 3 12 9 6 7 6 6 6 10 9 7 8 7 7 4 4 8 18 9 19 1 4 6 20 12 14 13 10 12
15 17 18 21 24 26 24 23 21 19 15 10 5 4 4 12 10 11 10 6 6 9 12 11 8 6 9 11 10 6 2 6 4 16 9 28 5 7 7 14 20 9 11 13 14
16 18 20 22 26 28 27 26 22 18 12 5 2 4 8 6 9 10 10 10 12 12 12 9 8 7 3 9 11 6 2 4 7 9 7 6 5 8 12 11 17 10 9 11 8
18 20 22 24 27 30 30 29 24 15 8 5 2 4 8 9 5 12 11 13 13 9 8 10 4 5 8 6 9 6 7 8 7 9 9 11 7 3 10 7 13 12 6 9 8
18 20 22 25 27 29 32 29 5 2 5 5 9 4 6 6 5 4 8 10 8 7 7 6 2 3 6 1 9 8 8 12 12 10 21 20 17 12 4 9 18 7 6 7 5
17 19 22 25 27 30 18 7 7 3 3 9 7 8 11 9 7 6 10 8 7 3 6 8 3 9 13 13 18 11 7 6 18 19 17 17 13 21 16 24 20 7 8 6 7
17 19 22 26 28 28 8 6 8 9 11 14 15 11 14 3 5 10 10 6 4 8 7 5 12 18 15 17 4 10 10 7 23 19 21 7 20 9 12 12 10 7 11 9 6
16 18 21 26 31 10 8 5 9 17 4 11 12 6 8 5 9 11 8 8 7 9 11 10 17 18 11 4 3 9 6 3 5 14 15 19 6 5 3 6 8 8 6 9 6
16 17 17 24 6 9 4 10 8 7 4 7 8 7 7 4 8 14 13 10 8 17 11 11 22 7 2 6 4 4 7 10 6 6 4 6 3 2 6 9 8 5 10 3 5
16 16 15 5 8 5 7 10 7 3 3 9 9 5 9 10 5 11 14 13 16 15 4 13 5 2 4 0 4 2 7 6 5 6 3 4 9 1 2 5 8 2 8 10 1
17 15 14 4 4 11 13 8 4 2 3 4 7 8 7 9 16 6 9 8 7 9 15 14 6 4 2 5 3 5 5 7 4 2 3 4 8 2 5 6 2 3 6 6 6
18 19 9 7 6 8 8 5 4 4 1 9 10 11 8 8 12 7 9 8 6 3 7 7 5 2 4 3 3 4 4 5 8 3 3 6 13 4 2 7 13 9 7 8 7
19 24 10 9 8 9 3 2 2 9 13 5 11 13 9 8 8 12 8 7 10 7 6 5 3 9 4 5 3 4 5 5 1 1 5 6 7 6 13 15 18 12 10 7 7
21 4 6 8 13 5 2 1 6 5 10 10 7 11 8 9 7 7 9 10 11 10 5 4 5 7 7 4 5 7 5 3 1 3 7 4 7 4 6 12 15 11 8 8 17
7 5 7 9 11 3 1 6 6 6 13 14 2 5 6 12 6 8 9 13 9 3 7 4 2 6 6 3 6 2 3 7 5 3 6 5 8 6 6 9 8 10 8 11 15
3 4 6 10 5 2 4 6 12 17 10 9 11 8 6 3 4 5 5 5 4 5 3 4 3 1 6 3 5 6 6 5 4 3 3 5 3 6 8 8 8 10 16 18 16
4 4 4 6 1 4 5 6 4 6 13 10 5 7 7 7 3 2 3 3 5 7 4 2 3 2 3 6 8 8 7 6 6 5 2 6 1 7 8 9 10 11 13 13 13
4 5 5 6 3 4 7 14 18 5 11 7 10 7 6 4 3 4 4 1 8 6 2 3 5 3 5 8 7 7 6 6 3 3 4 6 3 7 10 11 11 10 12 14 14
4 4 4 2 5 7 6 10 7 7 13 11 9 8 7 4 1 4 6 6 8 6 2 2 5 4 4 5 5 6 9 9 7 5 3 10 10 8 9 9 9 9 11 11 10
4 6 3 4 8 9 6 8 11 6 7 3 5 7 7 4 3 7 11 7 5 3 4 5 1 2 6 7 10 9 9 10 8 4 9 8 11 7 7 9 10 12 13 13 12
4 3 7 9 10 6 9 7 10 12 6 6 6 10 10 6 7 8 12 6 4 2 4 4 1 3 3 7 11 10 7 13 10 12 15 14 11 8 9 13 13 11 11 10 8
3 7 4 7 7 4 6 6 8 9 11 7 3 4 8 9 5 9 8 8 8 6 2 2 2 3 2 9 9 7 5 11 11 9 9 8 5 11 12 12 8 8 9 9 7
Wind_Direction
345 340 334 329 328 326 321 320 319 317 316 308 311 312 312 310 300 176 239 217 184 171 236 290 216 259 263 243 243 258 292 283 309 44 357 30 94 56 88 114 340 5 92 163 169
344 338 336 332 327 321 319 320 318 316 314 310 314 313 308 316 274 251 248 155 150 148 212 227 242 238 254 255 249 158 114 261 36 39 45 55 51 136 81 89 89 131 129 133 142
339 337 327 323 323 322 320 318 313 317 313 310 312 317 302 312 295 244 147 175 160 150 289 298 291 269 250 261 258 250 207 337 40 44 30 67 51 53 76 67 151 152 94 117 128
333 328 325 324 324 318 314 315 317 315 309 310 315 313 303 243 317 140 152 141 168 195 242 272 272 248 231 259 270 286 305 64 37 63 72 50 51 56 47 53 93 85 88 84 74
327 326 325 323 320 321 321 316 314 307 308 312 315 300 273 228 251 147 143 190 185 193 233 252 301 257 255 283 278 275 292 105 95 81 89 61 16 56 31 32 53 75 76 74 74
325 327 327 325 324 318 318 313 305 304 307 307 302 310 239 259 127 143 175 197 239 201 270 245 252 276 258 265 311 227 271 193 85 94 108 109 129 15 6 358 39 61 76 81 80
325 325 324 322 319 316 314 310 306 298 304 302 288 237 272 246 143 159 200 208 218 218 243 262 260 14 342 320 314 286 19 311 176 107 105 124 43 42 41 28 2 46 74 75 76
328 328 327 325 321 316 315 311 299 294 290 296 282 266 253 272 168 158 209 218 229 241 236 290 334 335 297 301 311 268 267 244 206 123 129 118 41 307 62 36 323 322 69 63 58
330 329 327 325 322 318 317 310 298 275 228 136 245 204 275 301 193 194 195 219 227 229 282 279 346 259 318 306 324 292 233 235 82 74 101 60 122 266 108 151 268 278 87 81 54
328 327 325 324 322 317 318 301 269 249 201 206 259 324 273 230 224 216 212 231 249 216 253 249 267 232 299 176 243 252 248 246 134 86 94 80 91 115 320 308 273 218 91 84 93
325 324 324 321 319 317 335 334 3 10 237 260 295 255 307 327 155 222 230 243 262 237 231 252 198 233 242 242 251 261 303 56 98 130 84 121 135 123 175 191 230 171 127 151 148
322 323 323 320 317 316 297 11 352 300 300 284 265 266 280 304 259 221 213 202 233 255 261 292 232 242 242 249 311 322 304 66 146 133 109 137 107 130 163 151 166 184 160 165 140
318 321 323 321 316 312 318 30 328 336 264 282 219 206 230 196 258 215 195 207 216 237 251 218 248 242 244 326 258 273 312 162 103 102 85 116 65 78 30 116 205 346 99 91 299
314 318 327 330 345 331 290 350 337 348 287 244 188 222 188 214 255 241 210 186 219 232 228 241 252 241 243 263 296 4 351 15 33 32 225 170 97 214 160 244 285 23 70 104 236
309 316 326 302 292 302 302 307 340 61 331 161 160 170 179 193 260 219 195 215 257 278 272 272 121 210 276 73 53 217 27 332 324 321 3 91 93 169 128 218 244 292 81 262 139
306 311 337 315 250 245 283 322 32 305 244 166 155 158 171 215 253 189 182 223 274 292 281 269 182 185 54 70 58 317 320 317 300 206 27 10 101 232 203 223 206 14 204 212 115
306 304 305 295 242 340 322 354 356 257 325 153 166 161 190 210 249 204 191 224 216 224 259 278 177 253 81 348 240 251 41 336 2 27 96 94 65 231 281 75 103 126 156 141 135
308 306 251 220 237 257 316 357 248 296 313 198 165 163 199 214 233 169 185 238 250 248 279 264 275 181 132 222 242 346 129 128 337 339 168 31 69 7 86 123 145 161 126 133 99
309 279 252 236 221 235 49 4 233 296 312 341 152 158 205 218 218 186 181 221 240 223 195 326 348 109 135 34 69 323 27 232 88 305 70 83 121 59 147 128 113 115 100 78 95
323 287 258 251 147 118 178 236 272 302 346 340 301 173 207 201 210 175 187 224 243 98 87 307 333 156 108 52 282 191 269 30 356 20 96 94 66 105 69 117 108 91 88 68 94
280 277 256 127 105 131 220 240 305 306 341 344 331 318 236 202 235 233 231 93 62 13 113 3 21 355 109 8 66 34 29 28 108 62 111 124 74 128 111 82 82 66 66 81 75
262 265 175 111 139 223 202 242 246 348 313 300 292 283 246 174 269 216 37 90 74 46 26 27 118 19 114 76 46 87 86 92 106 324 270 96 166 98 100 80 80 78 87 81 76
263 261 288 127 250 240 279 291 273 305 281 306 296 308 334 249 195 146 117 45 69 67 48 322 353 22 14 7 27 71 54 81 102 82 340 97 162 88 85 75 75 80 78 82 73
280 273 238 181 246 277 322 290 261 243 256 269 300 316 316 316 183 106 110 69 64 93 281 125 45 117 185 182 120 84 71 68 78 59 59 111 112 80 69 79 86 72 78 87 81
249 264 322 222 231 216 217 291 314 287 216 288 297 253 282 322 258 140 109 105 54 41 50 81 49 3 300 91 78 78 78 68 60 45 106 111 96 102 91 82 82 75 65 56 57
293 302 348 295 282 224 191 244 270 288 286 253 239 289 326 280 265 148 131 123 135 100 70 20 302 322 74 82 91 87 78 85 61 51 98 104 94 120 86 82 70 66 68 63 59
275 293 265 284 307 302 200 216 251 272 278 259 355 324 291 271 81 102 124 122 139 122 109 87 103 48 192 114 106 64 65 99 87 64 103 94 123 87 80 78 76 76 75 80 68